SAUDISAT 2

Satellite information

Favourite Embed

Satellite Type and Status

PAYLOADIN ORBIT

Key statistics

Satellite SAUDISAT 2 at a glance.

Uptime

7837

Days in orbit

Revolutions

≈ 14.6

Per day

Orbit

SSO

Sun Synchronous Orbit

Inclination

98.5

Latest

Satellite identification and parameters

Extended collection of information and parameters for SAUDISAT 2.

Object identification

Identified? True

Debris? False

Object name: SAUDISAT 2

International designator: 2004-025F

Object number (NORAD): 28371

Object ID (CCSDS): 28371

Country: SAUDI ARABIA (SAUD)

Current information (Y/N): Y

RCS size: MEDIUM

Orbital parameters

Period: 98.866 minutes

Inclination: 98.5421 deg

SMA: 7082.563 km

Apoapsis: 722.381 km

Periapsis: 686.475 km

RAAN: 336.5185 deg

Eccentricy: 0.00253481

Argument of periapsis: 148.6583 deg

Mean anomaly: 211.6131 deg

Mean motion: 14.56522136 rev/day

Mean motion (dot): 0.00000583 rev/day2

B* drag term: 0.00014146598 1/REarth

Two-line elements (TLE)

Creation date: Dec. 12, 2025, 10:14 a.m.

Reference frame: TEME

Reference center: EARTH

Epoch: Dec. 12, 2025, 6:05 a.m. UTC

TLE line 0: 0 SAUDISAT 2

TLE line 1: 1 28371U 04025F 25346.25376530 .00000583 00000-0 14147-3 0 9999

TLE line 2: 2 28371 98.5421 336.5185 0025348 148.6583 211.6131 14.56522136138530

Live tracking on map

Real-time ground track for satellite SAUDISAT 2.

In-orbit conjunctions

There are no conjunctions computed for SAUDISAT 2, at the moment. Check back to stay up to date, as we update our databases every day.

Go to all conjunctions

Associated space launch

AprizeSat, is a constellation of small Low-Earth-Orbit satellites (64 satellites planned) to achieve a global communication system of data transmission and fixed and mobile asset tracking and monitoring (GMPCS).

SAUDISAT 2 was lifted into orbit during the mission ‘Dnepr | Aprizesat-2’, on board a Dnepr space rocket.

The launch took place on June 29, 2004, 6:30 a.m. from 109/95.

For more information about the launch, click the button.

Launch to space Dnepr | Aprizesat-2
Dnepr | Aprizesat-2

Agency: N/A

Status: Launch Successful

Launch date: June 29, 2004, 6:30 a.m. UTC

Rocket: Dnepr

Launch pad: 109/95

Location: Baikonur Cosmodrome, Republic of Kazakhstan

...

Latest news about this satellite

There are no fresh news available about this satellite. Check back as we update our databases every day.


Newsletter sign-up

Weekly statistics, charts and insights to help you stay on top of the space industry.